THORAD AGENA D DEB, 4996

Orbit data source: Space-Track

THORAD AGENA D DEB, 4996 is space debris in SSO originally from a launch on Wed, 08 Apr 1970 UTC launched from the Air Force Western Test Range (AFWTR). Debris objects in space refer to the collection of defunct objects orbiting the Earth. Examples of debris include non-operational satellites, rocket bodies, and fragments generated from explosions, collisions, or faulty payload assembly.

Loading next visibility...
Identifier
4996, 1970-025HS
Orbit
SSO
Country
Flag of USUS
Related business
Manufacturer
Unknown
Mission
Spacecraft
Bus & Motor
Unknown
Mass
Unknown
Launch date (UTC)
1970-04-08 (56 years ago)
Launch vehicle
Unknown
Launch site
Air Force Western Test Range (AFWTR)
Object type
Payload
Rocket body
Debris
Shape & HBR
Unknown shape, 0.1 m
Radar Cross Section
Medium (>0.1 m² and <1 m²)

Expand to show TLE details & history
Last TLE update: 23 hours ago

TLE from 23 hours ago
0 THORAD AGENA D DEB
1 04996U 70025HS  26255.95764852  .00002324  00000-0  12749-2 0  9994
2 04996 100.3489  29.6548 0070317 201.5562 158.2640 14.11807964830613
Epoch: 2026-09-12T22:59Z
TLE epoch observation values (Epoch: 2026-09-12T22:59:00.832Z)
Latitude
0.00001°
Longitude
52.94214°
Altitude
903.329 km
Speed
7.376 km/s
True Right ascension
01h 58m 37s
True Declination
0° 00' 00"
Sunlit
Object was in full shadow at epoch
Visualization orbit readout
Latitude
Unknown
Longitude
Unknown
Altitude
Unknown
Speed
Unknown
Apparent Right ascension
Unknown
Apparent Declination
Unknown
Sunlit
N/A
Visualization observer readout
Local Sidereal Time
14:17:26
Azimuth
Unknown
Elevation
Unknown
Doppler factor
Unknown
Orbital elements
Apogee altitude
901.275 km
Perigee altitude
799.617 km
Semi-major axis
7,228.583 km
Eccentricity
0.00703
Inclination
100.3489°
RAAN
29.6548°
Arg. of periapsis
201.5562°
True anomaly
158.55998°
Mean anomaly
158.264°
Eccentric anomaly
158.41223°
Mean motion
3.53153 °/min
Orbital period
101.94 mins
BSTAR
0.0012749

Documentation

Showing up to 5 results
|